Terminal Aerodrome Forecast
Issued by NWS Raleigh/Durham, NC

Home | Current Version | Previous Version | Text Only | Print | Product List | Glossary On
Versions: 1 2 3 4 5 6 7 8 9 10 11 12 13 14 15 16 17 18 19
000
FTUS42 KRAH 242327
TAFRDU
TAF
KRDU 242327Z 2500/2524 22009KT P6SM FEW250
      TEMPO 2513/2516 23012G19KT SCT030
     FM251600 22011KT P6SM SCT040 SCT250=

USA.gov is the U.S. government's official web portal to all federal, state and local government web resources and services.